Location: Leiter
(44.7178°N, 106.2687°W)
Time: 03:37:19
(UTC+00:00)

CUBESAT XI-V - Pass Details

Date: 09 July 2022
Orbit: 668 x 690 km, 98.1° (Epoch: 13 August)

Event Time Altitude Azimuth Distance (km) Brightness Sun altitude
Exits shadow 09:23:51 29° 219° (SW) 1,221 ? -16.3°
Maximum altitude 09:25:27 39° 262° (W) 1,007 ? -16.2°
Drops below altitude 10° 09:29:46 10° 332° (NNW) 2,104 ? -15.8°
Sets 09:32:08 0° 340° (NNW) 3,022 ? -15.5°
